Regional Weather Roundup
Issued by NWS Cleveland, OH

Home | Current Version | Previous Version | Graphics & Text | Print | Product List | Glossary On
Versions: 1 2 3 4 5 6 7 8 9 10 11 12 13 14 15 16 17 18 19 20 21 22 23 24 25 26 27 28 29 30 31 32 33 34 35 36 37 38 39 40 41 42 43 44 45 46 47 48 49 50
000
ASUS41 KCLE 040810
RWRCLE
OHIO REGIONAL WEATHER ROUNDUP
NATIONAL WEATHER SERVICE CLEVELAND, OH
400 AM EDT TUE AUG 04 2015

NOTE: "FAIR" INDICATES FEW OR NO CLOUDS BELOW 12,000 FEET WITH NO
SIGNIFICANT WEATHER AND/OR OBSTRUCTIONS TO VISIBILITY.

OHZ001>008-015>018-024>027-034-035-043-044-040900-
   NORTHWEST OHIO

CITY           SKY/WX    TMP DP  RH WIND       PRES   REMARKS
DEFIANCE       CLEAR     58  54  86 CALM      29.91S
FINDLAY        CLEAR     57  53  86 S5        29.91S
TOLEDO EXPRESS CLEAR     58  53  84 SW3       29.90S
TOLEDO EXEC    CLEAR     61  52  72 CALM      29.91S
LIMA           CLEAR     56  53  90 CALM      29.93S
$$

OHZ009>014-019>023-028>033-038-089-040900-
   NORTHEAST OHIO

CITY           SKY/WX    TMP DP  RH WIND       PRES   REMARKS
CLE-HOPKINS    PTCLDY    61  54  77 SW6       29.91R
CLE-LAKEFRONT  CLEAR     72  57  59 W15       29.87R
CUY CO. ARPT   NOT AVBL
LORAIN-ELYRIA  CLEAR     59  54  83 W3        29.91R
ASHTABULA      CLEAR     59  58  96 CALM      29.88R
AKRON-CANTON   CLEAR     63  55  75 SW5       29.91R
WOOSTER        CLEAR     55  52  89 CALM      29.93R
MANSFIELD      CLEAR     60  52  74 W3        29.93S
YOUNGSTOWN     PTCLDY    61  59  93 SW3       29.89R
$$

OHZ042-051>053-060>062-070>072-077>081-040900-
  SOUTHWEST OHIO

CITY           SKY/WX    TMP DP  RH WIND       PRES   REMARKS
CINC-COVINGTON PTCLDY    69  66  90 NE5       29.94S
CINC-LUNKEN    CLEAR     67  67 100 CALM      29.94F FOG
HAMILTON       PTCLDY    65  64  97 CALM      29.94F FOG
DAYTON         CLEAR     64  61  90 CALM      29.95S
WRIGHT-PAT AFB CLEAR     64  64  99 CALM      29.94S
DAYTON GENERAL CLEAR     64  61  90 CALM      29.93F
WILMINGTON     CLEAR     63  62  97 CALM      29.95S
$$

OHZ036-037-039>041-045>050-054>059-063>069-073>076-082>088-040900-
  CENTRAL AND SOUTHEAST OHIO

CITY           SKY/WX    TMP DP  RH WIND       PRES   REMARKS
COLUMBUS       MOCLDY    64  61  90 CALM      29.93S
OSU AIRPORT    CLOUDY    64  59  83 SW3       29.94R
BOLTON FIELD   CLOUDY    62  61  96 CALM      29.94S
RICKENBACK AFB MOCLDY    64  61  92 CALM      29.93S
NEWARK         CLEAR     60  57  89 CALM      29.93S
MARION         CLEAR     59  53  80 W3        29.93S
LANCASTER      CLEAR     61  60  97 CALM      29.93F
ZANESVILLE     CLEAR     64  56  75 NW5       29.92S
NEW PHILLY     CLEAR     61  56  83 CALM      29.93R
$$



USA.gov is the U.S. government's official web portal to all federal, state and local government web resources and services.